Flag for U.S.A. Weather past 2 weeks in Scottsdale, Arizona, U.S.A.

Now
86 °F

Clear.


Feels Like: 86 °F
Forecast: 83 / 100 °F
Wind: 3 mph from East

Location: Scottsdale Airport

Current Time: Aug 30, 2015 at 5:12:41 AM

Latest Report: Aug 30, 2015 at 4:53 AM


Visibility: 10 mi

Pressure: 29.80 "Hg

Humidity: 43%

Dew point: 61 °F

Location of ScottsdaleLocation

Historic Weather in Scottsdale — Graph

°F

Scottsdale temperature yesterday

Maximum temperature yesterday: 107 °F (at 2:53 PM)
Minimum temperature yesterday: 83 °F (at 8:53 PM)
Average temperature yesterday: 95 °F

Past Weeks' High & Low Weather Summary

 TemperatureHumidityPressure
High113 °F (Aug 15, 3:53 PM)69% (Aug 25, 3:53 AM)29.96 "Hg (Aug 25, 3:53 AM)
Low80 °F (Aug 28, 4:53 AM)12% (Aug 15, 3:53 PM)29.64 "Hg (Aug 18, 5:53 PM)
Average94 °F32%29.79 "Hg
* Reported Aug 15 2:53 AM — Aug 30 2:53 AM, Scottsdale, Weather by CustomWeather, © 2015

Note: Actual official high and low records may vary slightly from our data, if they occured in-between our weather recording intervals... More about our weather records

Advertising

Scottsdale weather history for previous 24 hours

 ConditionsComfort  
Time TempWeatherWind HumidityBarometerVisibility
2:53 AM
Sun, Aug 30
84 °FClear.No wind57%29.79 "Hg10 mi
1:53 AM86 °FClear.No wind46%29.78 "Hg10 mi
12:53 AM86 °FClear.No wind51%29.77 "Hg10 mi
11:53 PM
Sat, Aug 29
87 °FClear.3 mph50%29.78 "Hg10 mi
10:53 PM86 °FClear.3 mph51%29.78 "Hg10 mi
9:53 PM84 °FPassing clouds.No wind59%29.79 "Hg10 mi
8:53 PM83 °FStrong thunderstorms. Overcast.14 mph57%29.81 "Hg5 mi
7:53 PM102 °FClear.7 mph19%29.72 "Hg10 mi
6:53 PM105 °FSunny.5 mph16%29.70 "Hg10 mi
5:53 PM107 °FSunny.8 mph15%29.69 "Hg10 mi
4:53 PM107 °FSunny.6 mph14%29.69 "Hg10 mi
3:53 PM107 °FSunny.5 mph16%29.70 "Hg10 mi
2:53 PM107 °FSunny.5 mph15%29.72 "Hg10 mi
1:53 PM106 °FSunny.7 mph17%29.75 "Hg10 mi
12:53 PM103 °FSunny.5 mph20%29.79 "Hg10 mi
11:53 AM102 °FSunny.6 mph22%29.81 "Hg10 mi
10:53 AM100 °FSunny.7 mph24%29.83 "Hg10 mi
9:53 AM97 °FSunny.8 mph25%29.84 "Hg10 mi
8:53 AM94 °FSunny.7 mph28%29.83 "Hg10 mi
7:53 AM89 °FSunny.No wind38%29.82 "Hg10 mi
6:53 AM86 °FSunny.No wind39%29.80 "Hg10 mi
5:53 AM85 °FClear.No wind42%29.78 "Hg10 mi
Weather by CustomWeather, © 2015

See weather overviewHow to use our weather pages